EW7180 Weather Reports


Display with metric or nautical units.
time (UTC)temp
F
wind
direction
speed
MPH
gust
MPH
rain 1hr
in
rain 24hr
in
rain mn
in
humidity
%
barometer
mb
20181120162712 37 23 2.0 3.0 0.00 0.03 0.03 87 1012.0
20181120162212 37 23 2.0 3.0 0.00 0.03 0.03 88 1011.8
20181120161708 37 45 1.0 3.0 0.00 0.03 0.03 88 1011.8
20181120161211 37 90 1.0 2.0 0.00 0.03 0.03 88 1011.8
20181120160708 37 90 0.0 2.0 0.00 0.03 0.03 88 1011.8
20181120160212 37 113 1.0 3.0 0.00 0.03 0.03 88 1011.6
20181120155707 37 68 1.0 3.0 0.00 0.03 0.03 88 1011.6
20181120155211 37 23 1.0 3.0 0.00 0.03 0.03 87 1011.6
20181120154708 37 45 1.0 2.0 0.00 0.03 0.03 87 1011.6
20181120154212 37 45 1.0 2.0 0.00 0.03 0.03 87 1012.2
20181120153708 37 45 1.0 2.0 0.00 0.03 0.03 87 1012.2
20181120153211 37 68 0.0 2.0 0.00 0.03 0.03 87 1012.2
20181120152708 37 113 0.0 2.0 0.00 0.03 0.03 87 1012.2
20181120152212 36 113 1.0 3.0 0.00 0.03 0.03 86 1012.4
20181120151708 37 23 1.0 3.0 0.00 0.03 0.03 87 1012.4
20181120150708 37 45 1.0 3.0 0.00 0.03 0.03 87 1012.4
20181120150212 37 68 1.0 2.0 0.00 0.03 0.03 87 1012.6
20181120145707 37 90 0.0 3.0 0.00 0.03 0.03 87 1012.6
20181120145212 37 45 1.0 4.0 0.00 0.03 0.03 86 1012.6
20181120144709 37 45 2.0 6.0 0.00 0.03 0.03 86 1012.6
20181120144212 37 23 2.0 6.0 0.00 0.03 0.03 86 1012.7
20181120143707 37 23 3.0 6.0 0.00 0.03 0.03 85 1012.7
20181120143211 37 45 2.0 4.0 0.00 0.03 0.03 86 1012.7
20181120142212 37 23 1.0 3.0 0.03 0.03 0.03 86 1012.7
20181120141708 37 68 1.0 2.0 0.03 0.03 0.03 86 1012.7
20181120141211 37 23 1.0 2.0 0.03 0.03 0.03 85 1012.7
20181120140708 37 45 1.0 2.0 0.03 0.03 0.03 84 1012.7
20181120140212 37 23 1.0 2.0 0.03 0.03 0.03 84 1012.8
20181120135708 37 113 1.0 2.0 0.03 0.03 0.03 84 1012.8
20181120135211 37 90 0.0 4.0 0.03 0.03 0.03 84 1012.8
20181120134708 37 68 1.0 4.0 0.03 0.03 0.03 84 1012.8
20181120134212 37 0 2.0 4.0 0.03 0.03 0.03 82 1012.6
20181120133708 37 23 1.0 2.0 0.03 0.03 0.03 81 1012.6
20181120133211 38 68 0.0 2.0 0.00 0.00 0.00 82 1012.6
20181120132708 37 23 0.0 2.0 0.00 0.00 0.00 81 1012.6
20181120132212 37 90 0.0 2.0 0.00 0.00 0.00 81 1012.5
20181120131708 37 113 0.0 4.0 0.00 0.00 0.00 80 1012.5
20181120131211 38 68 1.0 4.0 0.00 0.00 0.00 80 1012.5
20181120130707 38 68 1.0 4.0 0.00 0.00 0.00 79 1012.5
20181120130212 38 45 1.0 4.0 0.00 0.00 0.00 79 1012.9
20181120125707 38 45 1.0 4.0 0.00 0.00 0.00 79 1012.9
20181120125211 38 90 2.0 4.0 0.00 0.00 0.00 79 1012.9
20181120124708 37 23 2.0 4.0 0.00 0.00 0.00 79 1012.9
20181120124212 37 45 1.0 0.0 0.00 0.00 0.00 78 1013.0
20181120123707 37 23 0.0 2.0 0.00 0.00 0.00 79 1013.0
20181120123211 38 23 0.0 2.0 0.00 0.00 0.00 79 1013.0
20181120122708 38 23 0.0 3.0 0.00 0.00 0.00 79 1013.0
20181120122213 37 315 1.0 3.0 0.00 0.00 0.00 78 1013.0
20181120121708 38 315 2.0 3.0 0.00 0.00 0.00 77 1013.0
20181120121211 38 315 1.0 3.0 0.00 0.00 0.00 76 1013.0
20181120120708 38 338 1.0 4.0 0.00 0.00 0.00 75 1013.0
20181120120212 38 315 1.0 4.0 0.00 0.00 0.00 74 1012.8
20181120115707 38 315 1.0 4.0 0.00 0.00 0.00 72 1012.8
20181120115211 38 23 2.0 2.0 0.00 0.00 0.00 72 1012.8
20181120114708 38 315 2.0 4.0 0.00 0.00 0.00 73 1012.8
20181120114212 38 293 1.0 5.0 0.00 0.00 0.00 73 1012.8
20181120113707 38 315 2.0 5.0 0.00 0.00 0.00 72 1012.8
20181120113211 39 338 2.0 5.0 0.00 0.00 0.00 72 1012.8
20181120112709 39 23 2.0 3.0 0.00 0.00 0.00 72 1012.8
20181120112214 39 45 2.0 4.0 0.00 0.00 0.00 71 1013.0
20181120111710 39 293 2.0 8.0 0.00 0.00 0.00 71 1013.0
20181120111211 39 338 3.0 8.0 0.00 0.00 0.00 70 1013.0
20181120110708 39 315 4.0 8.0 0.00 0.00 0.00 70 1013.0
20181120110213 39 338 4.0 8.0 0.00 0.00 0.00 69 1013.2
20181120105708 39 0 5.0 8.0 0.00 0.00 0.00 70 1013.2
20181120105211 39 23 4.0 6.0 0.00 0.00 0.00 70 1013.2
20181120104708 39 293 4.0 6.0 0.00 0.00 0.00 69 1013.2
20181120104212 39 315 4.0 8.0 0.00 0.00 0.00 70 1013.3
20181120103707 39 23 3.0 8.0 0.00 0.00 0.00 70 1013.3
20181120103211 39 338 3.0 8.0 0.00 0.00 0.00 69 1013.3
20181120102707 39 23 3.0 6.0 0.00 0.00 0.00 70 1013.3
20181120102211 39 315 3.0 6.0 0.00 0.00 0.00 69 1013.5
20181120101708 39 315 4.0 7.0 0.00 0.00 0.00 69 1013.5
20181120101211 39 315 4.0 7.0 0.00 0.00 0.00 69 1013.5
20181120100707 39 293 4.0 5.0 0.00 0.00 0.00 69 1013.5
20181120100212 39 315 3.0 4.0 0.00 0.00 0.00 69 1013.7
20181120095707 39 315 3.0 5.0 0.00 0.00 0.00 69 1013.7
20181120095211 39 315 4.0 6.0 0.00 0.00 0.00 69 1013.7
20181120094708 39 338 4.0 6.0 0.00 0.00 0.00 69 1013.7
20181120094212 39 315 4.0 6.0 0.00 0.00 0.00 69 1013.8
20181120093708 39 338 4.0 5.0 0.00 0.00 0.00 68 1013.8
20181120093211 39 315 3.0 5.0 0.00 0.00 0.00 69 1013.8
20181120092708 39 315 3.0 5.0 0.00 0.00 0.00 68 1013.8
20181120092212 39 315 2.0 5.0 0.00 0.00 0.00 69 1013.7
20181120091708 38 315 3.0 5.0 0.00 0.00 0.00 70 1013.7
20181120091211 38 315 3.0 5.0 0.00 0.00 0.00 70 1013.7
20181120090212 38 315 2.0 6.0 0.00 0.00 0.00 71 1013.7
20181120085707 38 45 3.0 9.0 0.00 0.00 0.00 71 1013.7
20181120085211 38 23 4.0 9.0 0.00 0.00 0.00 69 1013.7
20181120084708 38 68 4.0 9.0 0.00 0.00 0.00 69 1013.7
20181120084212 38 45 4.0 6.0 0.00 0.00 0.00 69 1013.7
20181120083707 38 68 3.0 6.0 0.00 0.00 0.00 70 1013.7
20181120083210 37 23 4.0 6.0 0.00 0.00 0.00 70 1013.7
20181120082708 37 45 3.0 9.0 0.00 0.00 0.00 70 1013.7
20181120082212 37 90 3.0 9.0 0.00 0.00 0.00 71 1013.9
20181120081708 37 45 4.0 9.0 0.00 0.00 0.00 71 1013.9
20181120081211 37 23 4.0 6.0 0.00 0.00 0.00 71 1013.9
20181120080708 36 68 3.0 5.0 0.00 0.00 0.00 72 1013.9
20181120080212 36 45 3.0 5.0 0.00 0.00 0.00 72 1013.8
20181120075707 35 23 2.0 4.0 0.00 0.00 0.00 74 1013.8
20181120075213 35 45 0.0 3.0 0.00 0.00 0.00 75 1013.8
20181120074710 34 68 0.0 3.0 0.00 0.00 0.00 76 1013.8
20181120074213 34 23 0.0 2.0 0.00 0.00 0.00 77 1013.8
20181120073710 34 113 0.0 3.0 0.00 0.00 0.00 77 1013.8
20181120073214 34 45 1.0 3.0 0.00 0.00 0.00 77 1013.8
20181120072709 33 23 1.0 3.0 0.00 0.00 0.00 78 1013.8
20181120072214 33 68 2.0 6.0 0.00 0.00 0.00 77 1014.0
20181120071710 33 135 2.0 6.0 0.00 0.00 0.00 79 1014.0
20181120070710 33 68 4.0 8.0 0.00 0.00 0.00 79 1014.0
20181120070215 33 113 4.0 8.0 0.00 0.00 0.00 80 1014.3
20181120065710 32 68 4.0 8.0 0.00 0.00 0.00 82 1014.3
20181120065213 31 45 3.0 3.0 0.00 0.00 0.00 84 1014.3
20181120064710 29 68 1.0 2.0 0.00 0.00 0.00 86 1014.3
20181120064214 29 113 0.0 2.0 0.00 0.00 0.00 85 1014.9
20181120063710 28 135 0.0 2.0 0.00 0.00 0.00 85 1014.9
20181120063213 28 135 0.0 2.0 0.00 0.00 0.00 85 1014.9
20181120062710 28 135 0.0 2.0 0.00 0.00 0.00 85 1014.9
20181120062214 29 113 0.0 2.0 0.00 0.00 0.00 85 1015.1
20181120061710 29 113 0.0 2.0 0.00 0.00 0.00 84 1015.1
20181120061212 29 113 0.0 2.0 0.00 0.00 0.00 84 1015.1
20181120060709 29 113 1.0 2.0 0.00 0.00 0.00 85 1015.1
20181120060215 29 113 0.0 1.0 0.00 0.00 0.00 84 1015.3
20181120055710 29 113 0.0 1.0 0.00 0.00 0.00 84 1015.3
20181120055213 30 113 0.0 3.0 0.00 0.00 0.00 84 1015.3
20181120054711 30 113 0.0 3.0 0.00 0.00 0.00 84 1015.3
20181120054214 30 68 2.0 2.0 0.00 0.00 0.00 84 1015.6
20181120053710 30 68 1.0 2.0 0.00 0.00 0.00 84 1015.6
20181120053215 30 45 0.0 2.0 0.00 0.00 0.00 84 1015.6
20181120052710 30 113 0.0 2.0 0.00 0.00 0.00 84 1015.6
20181120052215 31 113 0.0 2.0 0.00 0.00 0.00 83 1015.4
20181120051712 31 113 0.0 3.0 0.00 0.00 0.00 82 1015.4
20181120051212 31 45 0.0 3.0 0.00 0.00 0.00 82 1015.4
20181120050709 32 90 1.0 3.0 0.00 0.00 0.00 82 1015.4
20181120050214 32 90 2.0 2.0 0.00 0.00 0.00 82 1015.6
20181120045709 32 23 1.0 2.0 0.00 0.00 0.00 81 1015.6
20181120045213 32 23 0.0 0.0 0.00 0.00 0.00 81 1015.6
20181120044710 33 68 0.0 3.0 0.00 0.00 0.00 80 1015.6
20181120044214 33 113 0.0 3.0 0.00 0.00 0.00 82 1015.6
20181120043710 33 113 0.0 3.0 0.00 0.00 0.00 82 1015.6
20181120043214 34 45 1.0 2.0 0.00 0.00 0.00 80 1015.6
20181120042710 33 90 0.0 2.0 0.00 0.00 0.00 81 1015.6
20181120042214 33 90 0.0 2.0 0.00 0.00 0.00 82 1015.8
20181120041710 33 68 0.0 2.0 0.00 0.00 0.00 82 1015.8
20181120041212 33 45 0.0 0.0 0.00 0.00 0.00 82 1015.8
20181120040214 33 45 0.0 2.0 0.00 0.00 0.00 82 1015.7
20181120035710 33 23 0.0 2.0 0.00 0.00 0.00 81 1015.7
20181120035213 33 23 0.0 2.0 0.00 0.00 0.00 80 1015.7
20181120034709 33 23 0.0 2.0 0.00 0.00 0.00 81 1015.7
20181120034212 33 23 0.0 2.0 0.00 0.00 0.00 80 1015.7
20181120033707 33 68 1.0 4.0 0.00 0.00 0.00 80 1015.7
20181120033211 33 68 1.0 4.0 0.00 0.00 0.00 80 1015.7
20181120032707 33 68 3.0 4.0 0.00 0.00 0.00 81 1015.7
20181120032212 33 23 3.0 4.0 0.00 0.00 0.00 80 1015.8
20181120031708 33 23 1.0 3.0 0.00 0.00 0.00 79 1015.8
20181120031211 33 23 1.0 2.0 0.00 0.00 0.00 79 1015.8
20181120030708 33 68 0.0 2.0 0.00 0.00 0.00 80 1015.8
20181120030211 33 68 1.0 2.0 0.00 0.00 0.00 80 1015.9
20181120025708 33 68 0.0 2.0 0.00 0.00 0.00 81 1015.9
20181120025211 32 45 0.0 3.0 0.00 0.00 0.00 83 1015.9
20181120024708 32 68 1.0 3.0 0.00 0.00 0.00 82 1015.9
20181120024212 32 68 1.0 3.0 0.00 0.00 0.00 82 1016.1
20181120023707 32 45 0.0 0.0 0.00 0.00 0.00 82 1016.1
20181120023210 32 68 0.0 2.0 0.00 0.00 0.00 81 1016.1
20181120022707 32 113 0.0 2.0 0.00 0.00 0.00 81 1016.1
20181120022217 32 90 0.0 0.0 0.00 0.00 0.00 80 1015.7
20181120021708 33 113 0.0 0.0 0.00 0.00 0.00 80 1015.7
20181120021212 33 113 0.0 2.0 0.00 0.00 0.00 80 1015.7
20181120020708 33 68 0.0 3.0 0.00 0.00 0.00 78 1015.7
20181120020239 34 90 1.0 3.0 0.00 0.00 0.00 77 1015.9
20181120015707 34 68 3.0 4.0 0.00 0.00 0.00 75 1015.9
20181120015212 35 90 3.0 4.0 0.00 0.00 0.00 75 1015.9
20181120014708 35 68 4.0 5.0 0.00 0.00 0.00 74 1015.9
20181120014212 35 113 3.0 5.0 0.00 0.00 0.00 74 1015.9
20181120013708 35 113 3.0 5.0 0.00 0.00 0.00 74 1015.9
20181120013211 35 90 4.0 5.0 0.00 0.00 0.00 74 1015.9
20181120012213 35 113 4.0 6.0 0.00 0.00 0.00 74 1016.0
20181120011707 35 113 4.0 5.0 0.00 0.00 0.00 74 1016.0
20181120011211 35 113 3.0 4.0 0.00 0.00 0.00 74 1016.0
20181120010709 35 68 2.0 4.0 0.00 0.00 0.00 73 1016.0
20181120010212 35 23 3.0 4.0 0.00 0.00 0.00 73 1016.1
20181120005708 35 45 3.0 6.0 0.00 0.00 0.00 74 1016.1
20181120005211 35 45 3.0 6.0 0.00 0.00 0.00 73 1016.1
20181120004708 35 23 4.0 7.0 0.00 0.00 0.00 73 1016.1
20181120004212 35 90 4.0 7.0 0.00 0.00 0.00 73 1016.7
20181120003708 35 45 4.0 7.0 0.00 0.00 0.00 73 1016.7
20181120003211 35 68 3.0 7.0 0.00 0.00 0.00 73 1016.7
20181120002707 35 23 3.0 7.0 0.00 0.00 0.00 73 1016.7
20181120002212 35 23 4.0 7.0 0.00 0.00 0.00 73 1016.7
20181120001708 35 23 4.0 7.0 0.00 0.00 0.00 73 1016.7
20181120001211 35 45 4.0 5.0 0.00 0.00 0.00 73 1016.7
20181120000708 35 68 3.0 7.0 0.00 0.00 0.00 73 1016.7
20181120000212 35 68 3.0 7.0 0.00 0.00 0.00 73 1017.0
20181119235708 35 23 4.0 4.0 0.00 0.00 0.00 73 1017.0
20181119235211 35 293 3.0 4.0 0.00 0.00 0.00 73 1017.0
20181119234708 35 23 2.0 4.0 0.00 0.00 0.00 74 1017.0
20181119234212 35 68 2.0 5.0 0.00 0.00 0.00 74 1017.0
20181119233707 35 45 3.0 5.0 0.00 0.00 0.00 74 1017.0
20181119233211 35 23 4.0 6.0 0.00 0.00 0.00 74 1017.0
20181119232710 35 45 4.0 6.0 0.00 0.00 0.00 74 1017.0
20181119232214 35 23 4.0 6.0 0.00 0.00 0.00 74 1017.3
20181119231711 35 23 3.0 5.0 0.00 0.00 0.00 74 1017.3
20181119231211 35 45 3.0 5.0 0.00 0.00 0.00 74 1017.3
20181119230708 35 45 2.0 4.0 0.00 0.00 0.00 75 1017.3
20181119230211 35 23 2.0 3.0 0.00 0.00 0.00 75 1017.7
20181119225708 35 23 2.0 4.0 0.00 0.00 0.00 74 1017.7
20181119225211 35 45 2.0 6.0 0.00 0.00 0.00 74 1017.7
20181119224212 35 45 4.0 6.0 0.00 0.00 0.00 74 1017.8
20181119223708 35 45 3.0 6.0 0.00 0.00 0.00 74 1017.8
20181119223211 35 45 3.0 6.0 0.00 0.00 0.00 74 1017.8
20181119222707 35 68 4.0 6.0 0.00 0.00 0.00 74 1017.8
20181119222213 35 23 4.0 6.0 0.00 0.00 0.00 74 1017.6
20181119221708 35 23 3.0 5.0 0.00 0.00 0.00 74 1017.6
20181119221211 35 23 3.0 4.0 0.00 0.00 0.00 74 1017.6
20181119220708 35 23 3.0 5.0 0.00 0.00 0.00 75 1017.6
20181119220212 35 23 3.0 5.0 0.00 0.00 0.00 74 1018.2
20181119215708 35 23 3.0 5.0 0.00 0.00 0.00 74 1018.2
20181119215211 35 45 2.0 4.0 0.00 0.00 0.00 74 1018.2
20181119214708 35 45 2.0 4.0 0.00 0.00 0.00 74 1018.2
20181119214212 35 45 2.0 4.0 0.00 0.00 0.00 75 1017.7
20181119213708 35 90 2.0 4.0 0.00 0.00 0.00 75 1017.7
20181119213211 35 68 2.0 4.0 0.00 0.00 0.00 74 1017.7
20181119212707 35 45 2.0 4.0 0.00 0.00 0.00 74 1017.7
20181119212212 35 113 2.0 4.0 0.00 0.00 0.00 74 1017.5
20181119211708 35 45 1.0 3.0 0.00 0.00 0.00 74 1017.5
20181119211211 35 68 2.0 4.0 0.00 0.00 0.00 74 1017.5
20181119210708 35 68 2.0 6.0 0.00 0.00 0.00 74 1017.5
20181119210212 35 68 3.0 6.0 0.00 0.00 0.00 74 1017.8
20181119205707 35 315 4.0 6.0 0.00 0.00 0.00 74 1017.8
20181119205212 35 23 4.0 5.0 0.00 0.00 0.00 74 1017.8
20181119204708 35 23 4.0 6.0 0.00 0.00 0.00 74 1017.8
20181119204212 35 45 3.0 6.0 0.00 0.00 0.00 75 1017.7
20181119203708 35 45 2.0 6.0 0.00 0.00 0.00 75 1017.7
20181119203211 35 23 2.0 4.0 0.00 0.00 0.00 75 1017.7
20181119202708 35 45 3.0 4.0 0.00 0.00 0.00 75 1017.7
20181119202212 35 23 3.0 6.0 0.00 0.00 0.00 75 1017.5
20181119201708 35 0 3.0 6.0 0.00 0.00 0.00 75 1017.5
20181119201211 35 45 4.0 6.0 0.00 0.00 0.00 75 1017.5
20181119200708 35 45 3.0 6.0 0.00 0.00 0.00 75 1017.5
20181119200212 35 23 3.0 6.0 0.00 0.00 0.00 75 1017.6
20181119195708 35 23 4.0 5.0 0.00 0.00 0.00 76 1017.6
20181119195211 35 45 4.0 5.0 0.00 0.00 0.00 75 1017.6
20181119194708 35 23 4.0 5.0 0.00 0.00 0.00 75 1017.6
20181119194212 35 23 4.0 4.0 0.00 0.00 0.00 75 1017.5
20181119193709 35 23 3.0 4.0 0.00 0.00 0.00 76 1017.5
20181119193211 35 0 2.0 4.0 0.00 0.00 0.00 76 1017.5
20181119192707 35 45 2.0 4.0 0.00 0.00 0.00 76 1017.5
20181119192212 35 23 2.0 4.0 0.00 0.00 0.00 75 1017.2
20181119191708 35 23 2.0 3.0 0.00 0.00 0.00 75 1017.2
20181119191211 35 45 2.0 5.0 0.00 0.00 0.00 75 1017.2
20181119190708 35 23 2.0 5.0 0.00 0.00 0.00 75 1017.2
20181119190213 35 23 2.0 5.0 0.00 0.00 0.00 75 1017.0
20181119185711 34 23 2.0 3.0 0.00 0.00 0.00 75 1017.0
20181119185211 34 23 2.0 4.0 0.00 0.00 0.00 75 1017.0
20181119184708 34 0 1.0 5.0 0.00 0.00 0.00 76 1017.0
20181119184212 34 45 2.0 5.0 0.00 0.00 0.00 77 1017.0
20181119183707 34 23 3.0 5.0 0.00 0.00 0.00 77 1017.0
20181119183211 33 23 3.0 5.0 0.00 0.00 0.00 77 1017.0
20181119182708 33 45 2.0 4.0 0.00 0.00 0.00 78 1017.0
20181119182213 33 45 2.0 4.0 0.00 0.00 0.00 79 1017.0
20181119181708 33 113 1.0 4.0 0.00 0.00 0.00 80 1017.0
20181119181216 33 90 1.0 2.0 0.00 0.00 0.00 80 1017.0
20181119180708 33 68 1.0 2.0 0.00 0.00 0.00 79 1017.0
20181119180212 32 68 1.0 3.0 0.00 0.00 0.00 80 1016.8
20181119175707 32 90 1.0 3.0 0.00 0.00 0.00 82 1016.8
20181119174708 31 68 0.0 3.0 0.00 0.00 0.00 83 1016.8
20181119174212 31 68 1.0 3.0 0.00 0.00 0.00 82 1016.9
20181119173709 31 23 2.0 3.0 0.00 0.00 0.00 82 1016.9
20181119173210 31 23 2.0 3.0 0.00 0.00 0.00 82 1016.9
20181119172710 31 23 2.0 3.0 0.00 0.00 0.00 82 1016.9
20181119172214 31 45 2.0 3.0 0.00 0.00 0.00 83 1016.5
20181119171710 31 23 2.0 3.0 0.00 0.00 0.00 82 1016.5
20181119171211 31 23 2.0 3.0 0.00 0.00 0.00 81 1016.5
20181119170709 31 23 1.0 3.0 0.00 0.00 0.00 81 1016.5
20181119170212 31 23 0.0 1.0 0.00 0.00 0.00 82 1016.3
20181119165708 31 68 0.0 2.0 0.00 0.00 0.00 82 1016.3
20181119165211 31 90 0.0 3.0 0.00 0.00 0.00 81 1016.3
20181119164708 31 90 2.0 3.0 0.00 0.00 0.00 81 1016.3
20181119164212 31 45 2.0 4.0 0.00 0.00 0.00 81 1016.3
20181119163707 31 23 1.0 4.0 0.00 0.00 0.00 81 1016.3
20181119163211 31 68 1.0 4.0 0.00 0.00 0.00 80 1016.3